Simultaneous Nadir Overpasses (SNOs) Predictions

Prediction of SNOs between METOP-B and NOAA-19 Satellite Orbit:

Table of predicted SNOs for the next 14.0 days since TLE Epoch: 12/11/2015
Index Date (METOP-B) Time (METOP-B) Lat,Lon (METOP-B) SZA (METOP-B ) Date (NOAA-19) Time (NOAA-19) Lat,Lon (NOAA-19) SZA (NOAA-19 ) Distance(km) Time Diff (sec)
1 12/18/2015 02:30:38 -75.58, -38.77 81.14 12/18/2015 02:29:23 -75.59, -39.01 81.12 6.82 75
2 12/18/2015 03:21:18 75.55, 128.49 98.84 12/18/2015 03:20:19 75.55, 128.38 98.85 2.87 59
3 12/18/2015 04:12:01 -75.51, -64.33 81.21 12/18/2015 04:11:24 -75.53, -64.32 81.18 2.83 37
4 12/18/2015 05:02:40 75.53, 103.07 98.82 12/18/2015 05:02:20 75.49, 103.08 98.79 3.90 20
5 12/18/2015 05:53:23 -75.48, -89.74 81.23 12/18/2015 05:53:25 -75.47, -89.62 81.24 3.55 2
6
